Regional Weather Roundup
Issued by NWS

Home | Current Version | Previous Version | Graphics & Text | Print | Product List | Glossary On
Versions: 1 2 3 4 5 6 7 8 9 10 11 12 13 14 15 16 17 18 19 20 21 22 23 24 25 26 27 28 29 30 31 32 33 34 35 36 37 38 39 40 41 42 43 44 45 46 47 48 49 50
236
ASUS43 KLMK 240102
RWRKY
KENTUCKY REGIONAL WEATHER ROUNDUP
NATIONAL WEATHER SERVICE LOUISVILLE KY
900 PM EDT WED MAY 23 2018

NOTE "FAIR" INDICATES FEW OR NO CLOUDS BELOW 12,000 FEET
WITH NO SIGNIFICANT WEATHER AND/OR OBSTRUCTIONS TO VISIBILITY.

KYZ001>023-026-027-061>063-070>075-240200-
WESTERN AND SOUTH CENTRAL KENTUCKY

CITY           SKY/WX    TMP DP  RH WIND       PRES   REMARKS
PADUCAH        FAIR      77  69  76 CALM      30.08R
HENDERSON      NOT AVBL
OWENSBORO      FAIR      82  63  52 CALM      30.09R
HOPKINSVILLE   FAIR      78  66  66 N5        30.08R
BOWLING GREEN  FAIR      81  65  58 N3        30.08R
GLASGOW        NOT AVBL
$$

KYZ024-025-028>034-038-045-046-053-240200-
NORTH CENTRAL KENTUCKY

CITY           SKY/WX    TMP DP  RH WIND       PRES   REMARKS
LOUISVILLE/SDF MOCLDY    80  57  45 E7        30.10R
LOUISVILLE/LOU FAIR      78  60  53 NE7       30.11R
FORT KNOX      FAIR      77  62  60 NE3       30.11R
$$

KYZ035>037-039>044-047>052-055>060-089>105-240200-
NORTHEAST KENTUCKY

CITY           SKY/WX    TMP DP  RH WIND       PRES   REMARKS
LEXINGTON      FAIR      71  59  65 NE7       30.13R
COVINGTON      FAIR      73  54  51 E8        30.13R
FRANKFORT      FAIR      75  59  57 NE6       30.11R
$$

KYZ054-064>069-076>088-106>120-240200-
SOUTHEAST KENTUCKY

CITY           SKY/WX    TMP DP  RH WIND       PRES   REMARKS
JACKSON        FAIR      71  63  75 CALM      30.13R
LONDON         FAIR      75  63  66 NE3       30.11R
SOMERSET       NOT AVBL
MIDDLESBORO    FAIR      73  64  74 CALM      30.10R
MONTICELLO     FAIR      75  65  70 NE14      30.12R
$$





USA.gov is the U.S. government's official web portal to all federal, state and local government web resources and services.